contact:dominique.lefevre@mio.osupytheas.fr, maurice.libes@osupytheas.fr, didier.mallarino@osupytheas.fr
Project:EMSO http://www.emso-fr.org/EMSO-France
Depth: 2436.0 m
Title:EMSO Ligure Ouest : Data MII capteur MICROCAT
DateTime_Computer,Latitude,Longitude,Temperature,Conductivity,Pressure,DateTime_Instrument
DateTime_Computer,Latitude,Longitude,degC,S m-1,dbar,DateTime_Instrument
2019-10-07T00:02:31Z,42.805,6.029,13.2976,4.59989,2469.853,2019-10-07T02:02:56Z
2019-10-07T00:05:34Z,42.805,6.029,13.2976,4.59994,2469.844,2019-10-07T02:05:59Z
2019-10-07T00:08:37Z,42.805,6.029,13.2964,4.59991,2469.89,2019-10-07T02:09:02Z
2019-10-07T00:11:41Z,42.805,6.029,13.2974,4.59981,2469.876,2019-10-07T02:12:05Z
2019-10-07T00:14:44Z,42.805,6.029,13.2980,4.59976,2469.9,2019-10-07T02:15:09Z
2019-10-07T00:17:47Z,42.805,6.029,13.2983,4.59967,2469.876,2019-10-07T02:18:12Z
2019-10-07T00:20:50Z,42.805,6.029,13.2979,4.59995,2469.876,2019-10-07T02:21:15Z
2019-10-07T00:23:53Z,42.805,6.029,13.2971,4.59989,2469.876,2019-10-07T02:24:18Z
2019-10-07T00:26:57Z,42.805,6.029,13.2971,4.59984,2469.914,2019-10-07T02:27:21Z
2019-10-07T00:30:00Z,42.805,6.029,13.2968,4.59989,2469.89,2019-10-07T02:30:25Z
2019-10-07T00:33:03Z,42.805,6.029,13.2973,4.59979,2469.853,2019-10-07T02:33:28Z
2019-10-07T00:36:06Z,42.805,6.029,13.2980,4.59991,2469.853,2019-10-07T02:36:31Z
2019-10-07T00:39:10Z,42.805,6.029,13.2974,4.59979,2469.876,2019-10-07T02:39:34Z
2019-10-07T00:42:13Z,42.805,6.029,13.2973,4.59987,2469.89,2019-10-07T02:42:37Z
2019-10-07T00:45:16Z,42.805,6.029,13.2979,4.59997,2469.876,2019-10-07T02:45:41Z
2019-10-07T00:48:19Z,42.805,6.029,13.2976,4.60009,2469.9,2019-10-07T02:48:44Z
2019-10-07T00:51:22Z,42.805,6.029,13.2973,4.60009,2469.867,2019-10-07T02:51:47Z
2019-10-07T00:54:26Z,42.805,6.029,13.2969,4.59986,2469.867,2019-10-07T02:54:50Z
2019-10-07T00:57:29Z,42.805,6.029,13.2969,4.59987,2469.876,2019-10-07T02:57:53Z
2019-10-07T01:00:32Z,42.805,6.029,13.2983,4.60005,2469.876,2019-10-07T03:00:57Z
2019-10-07T01:03:35Z,42.805,6.029,13.2967,4.59990,2469.867,2019-10-07T03:04:00Z
2019-10-07T01:06:38Z,42.805,6.029,13.2961,4.59983,2469.9,2019-10-07T03:07:03Z
2019-10-07T01:09:41Z,42.805,6.029,13.2968,4.60002,2469.876,2019-10-07T03:10:06Z
2019-10-07T01:12:45Z,42.805,6.029,13.2968,4.59987,2469.867,2019-10-07T03:13:09Z
2019-10-07T01:15:48Z,42.805,6.029,13.2982,4.60010,2469.876,2019-10-07T03:16:13Z
2019-10-07T01:18:51Z,42.805,6.029,13.2971,4.59992,2469.867,2019-10-07T03:19:16Z
2019-10-07T01:21:54Z,42.805,6.029,13.2971,4.60022,2469.876,2019-10-07T03:22:19Z
2019-10-07T01:24:58Z,42.805,6.029,13.2967,4.59991,2469.9,2019-10-07T03:25:22Z
2019-10-07T01:28:01Z,42.805,6.029,13.2967,4.60006,2469.853,2019-10-07T03:28:26Z
2019-10-07T01:31:04Z,42.805,6.029,13.2972,4.59989,2469.867,2019-10-07T03:31:29Z
2019-10-07T01:34:07Z,42.805,6.029,13.2972,4.60011,2469.876,2019-10-07T03:34:32Z
2019-10-07T01:37:10Z,42.805,6.029,13.2967,4.59986,2469.876,2019-10-07T03:37:35Z
2019-10-07T01:40:14Z,42.805,6.029,13.2979,4.59983,2469.867,2019-10-07T03:40:39Z
2019-10-07T01:43:17Z,42.805,6.029,13.2974,4.59990,2469.89,2019-10-07T03:43:42Z
2019-10-07T01:46:20Z,42.805,6.029,13.2980,4.59982,2469.876,2019-10-07T03:46:45Z
2019-10-07T01:49:24Z,42.805,6.029,13.2972,4.59994,2469.853,2019-10-07T03:49:48Z
2019-10-07T01:52:27Z,42.805,6.029,13.2968,4.60006,2469.853,2019-10-07T03:52:51Z
2019-10-07T01:55:30Z,42.805,6.029,13.2973,4.59993,2469.876,2019-10-07T03:55:55Z
2019-10-07T01:58:33Z,42.805,6.029,13.2986,4.59988,2469.89,2019-10-07T03:58:58Z
2019-10-07T02:01:36Z,42.805,6.029,13.2976,4.59983,2469.83,2019-10-07T04:02:01Z
2019-10-07T02:04:39Z,42.805,6.029,13.2980,4.60022,2469.853,2019-10-07T04:05:04Z
2019-10-07T02:07:43Z,42.805,6.029,13.2974,4.59980,2469.853,2019-10-07T04:08:07Z
2019-10-07T02:10:46Z,42.805,6.029,13.2980,4.59994,2469.914,2019-10-07T04:11:11Z
2019-10-07T02:13:49Z,42.805,6.029,13.2972,4.59982,2469.853,2019-10-07T04:14:14Z
2019-10-07T02:16:52Z,42.805,6.029,13.2984,4.59984,2469.867,2019-10-07T04:17:17Z
2019-10-07T02:19:56Z,42.805,6.029,13.2975,4.59998,2469.853,2019-10-07T04:20:20Z
2019-10-07T02:22:59Z,42.805,6.029,13.2971,4.59994,2469.867,2019-10-07T04:23:24Z
2019-10-07T02:26:02Z,42.805,6.029,13.2976,4.59990,2469.853,2019-10-07T04:26:27Z
2019-10-07T02:29:05Z,42.805,6.029,13.2971,4.59983,2469.876,2019-10-07T04:29:30Z
2019-10-07T02:32:09Z,42.805,6.029,13.2978,4.60002,2469.89,2019-10-07T04:32:33Z
2019-10-07T02:35:12Z,42.805,6.029,13.2974,4.59983,2469.867,2019-10-07T04:35:36Z
2019-10-07T02:38:15Z,42.805,6.029,13.2975,4.59988,2469.867,2019-10-07T04:38:40Z
2019-10-07T02:41:18Z,42.805,6.029,13.2968,4.59991,2469.89,2019-10-07T04:41:43Z
2019-10-07T02:44:22Z,42.805,6.029,13.2973,4.59998,2469.844,2019-10-07T04:44:46Z
2019-10-07T02:47:25Z,42.805,6.029,13.2969,4.59996,2469.867,2019-10-07T04:47:49Z
2019-10-07T02:50:28Z,42.805,6.029,13.2978,4.60004,2469.89,2019-10-07T04:50:53Z
2019-10-07T02:53:31Z,42.805,6.029,13.2979,4.59996,2469.867,2019-10-07T04:53:56Z
2019-10-07T02:56:34Z,42.805,6.029,13.2980,4.59981,2469.844,2019-10-07T04:56:59Z
2019-10-07T02:59:38Z,42.805,6.029,13.2979,4.59984,2469.853,2019-10-07T05:00:02Z
2019-10-07T03:02:41Z,42.805,6.029,13.2968,4.59981,2469.89,2019-10-07T05:03:06Z
2019-10-07T03:05:44Z,42.805,6.029,13.2979,4.59975,2469.867,2019-10-07T05:06:09Z
2019-10-07T03:08:47Z,42.805,6.029,13.2971,4.59996,2469.876,2019-10-07T05:09:12Z
2019-10-07T03:11:50Z,42.805,6.029,13.2977,4.60000,2469.867,2019-10-07T05:12:15Z
2019-10-07T03:14:54Z,42.805,6.029,13.2978,4.59981,2469.876,2019-10-07T05:15:18Z
2019-10-07T03:17:57Z,42.805,6.029,13.2977,4.60007,2469.853,2019-10-07T05:18:21Z
2019-10-07T03:21:00Z,42.805,6.029,13.2974,4.60013,2469.89,2019-10-07T05:21:25Z
2019-10-07T03:24:03Z,42.805,6.029,13.2974,4.59974,2469.867,2019-10-07T05:24:28Z
2019-10-07T03:27:06Z,42.805,6.029,13.2974,4.59978,2469.867,2019-10-07T05:27:31Z
2019-10-07T03:30:10Z,42.805,6.029,13.2983,4.59978,2469.83,2019-10-07T05:30:34Z
2019-10-07T03:33:13Z,42.805,6.029,13.2981,4.59987,2469.876,2019-10-07T05:33:38Z
2019-10-07T03:36:16Z,42.805,6.029,13.2967,4.59971,2469.853,2019-10-07T05:36:41Z
2019-10-07T03:39:19Z,42.805,6.029,13.2977,4.59973,2469.844,2019-10-07T05:39:44Z
2019-10-07T03:42:22Z,42.805,6.029,13.2983,4.59978,2469.844,2019-10-07T05:42:47Z
2019-10-07T03:45:26Z,42.805,6.029,13.2969,4.59996,2469.867,2019-10-07T05:45:50Z
2019-10-07T03:48:29Z,42.805,6.029,13.2974,4.59986,2469.867,2019-10-07T05:48:54Z
2019-10-07T03:51:32Z,42.805,6.029,13.2968,4.59976,2469.853,2019-10-07T05:51:57Z
2019-10-07T03:54:35Z,42.805,6.029,13.2976,4.59976,2469.9,2019-10-07T05:55:00Z
2019-10-07T03:57:39Z,42.805,6.029,13.2971,4.59970,2469.853,2019-10-07T05:58:03Z
2019-10-07T04:00:42Z,42.805,6.029,13.2973,4.59966,2469.853,2019-10-07T06:01:06Z
2019-10-07T04:03:45Z,42.805,6.029,13.2973,4.59978,2469.867,2019-10-07T06:04:10Z
2019-10-07T04:06:48Z,42.805,6.029,13.2972,4.59973,2469.867,2019-10-07T06:07:13Z
2019-10-07T04:09:51Z,42.805,6.029,13.2972,4.59978,2469.844,2019-10-07T06:10:16Z
2019-10-07T04:12:55Z,42.805,6.029,13.2971,4.59978,2469.867,2019-10-07T06:13:19Z
2019-10-07T04:15:58Z,42.805,6.029,13.2967,4.59960,2469.83,2019-10-07T06:16:23Z
2019-10-07T04:19:01Z,42.805,6.029,13.2966,4.59959,2469.83,2019-10-07T06:19:26Z
2019-10-07T04:22:04Z,42.805,6.029,13.2980,4.59971,2469.83,2019-10-07T06:22:29Z
2019-10-07T04:25:07Z,42.805,6.029,13.2982,4.59995,2469.816,2019-10-07T06:25:32Z
2019-10-07T04:28:11Z,42.805,6.029,13.2965,4.59964,2469.844,2019-10-07T06:28:35Z
2019-10-07T04:31:14Z,42.805,6.029,13.2973,4.59966,2469.83,2019-10-07T06:31:39Z
2019-10-07T04:34:17Z,42.805,6.029,13.2975,4.59968,2469.844,2019-10-07T06:34:42Z
2019-10-07T04:37:20Z,42.805,6.029,13.2964,4.59961,2469.853,2019-10-07T06:37:45Z
2019-10-07T04:40:23Z,42.805,6.029,13.2970,4.59967,2469.853,2019-10-07T06:40:48Z
2019-10-07T04:43:27Z,42.805,6.029,13.2976,4.59976,2469.867,2019-10-07T06:43:51Z
2019-10-07T04:46:30Z,42.805,6.029,13.2979,4.59983,2469.853,2019-10-07T06:46:55Z
2019-10-07T04:49:33Z,42.805,6.029,13.2979,4.59988,2469.867,2019-10-07T06:49:58Z
2019-10-07T04:52:36Z,42.805,6.029,13.2974,4.59975,2469.876,2019-10-07T06:53:01Z
2019-10-07T04:55:40Z,42.805,6.029,13.2963,4.59958,2469.844,2019-10-07T06:56:04Z
2019-10-07T04:58:43Z,42.805,6.029,13.2962,4.59956,2469.867,2019-10-07T06:59:08Z
2019-10-07T05:01:46Z,42.805,6.029,13.2958,4.59956,2469.783,2019-10-07T07:02:11Z
2019-10-07T05:04:49Z,42.805,6.029,13.2961,4.59959,2469.844,2019-10-07T07:05:14Z
2019-10-07T05:07:52Z,42.805,6.029,13.2967,4.59966,2469.853,2019-10-07T07:08:17Z
2019-10-07T05:10:56Z,42.805,6.029,13.2982,4.59970,2469.83,2019-10-07T07:11:20Z
2019-10-07T05:13:59Z,42.805,6.029,13.2977,4.59971,2469.821,2019-10-07T07:14:24Z
2019-10-07T05:17:02Z,42.805,6.029,13.2984,4.59969,2469.844,2019-10-07T07:17:27Z
2019-10-07T05:20:05Z,42.805,6.029,13.2971,4.59972,2469.844,2019-10-07T07:20:30Z
2019-10-07T05:23:08Z,42.805,6.029,13.2976,4.59979,2469.83,2019-10-07T07:23:33Z
2019-10-07T05:26:12Z,42.805,6.029,13.2982,4.59974,2469.806,2019-10-07T07:26:36Z
2019-10-07T05:29:15Z,42.805,6.029,13.2975,4.59977,2469.83,2019-10-07T07:29:40Z
2019-10-07T05:32:18Z,42.805,6.029,13.2977,4.59987,2469.806,2019-10-07T07:32:43Z
2019-10-07T05:35:21Z,42.805,6.029,13.2964,4.59958,2469.821,2019-10-07T07:35:46Z
2019-10-07T05:38:25Z,42.805,6.029,13.2964,4.59966,2469.806,2019-10-07T07:38:49Z
2019-10-07T05:41:28Z,42.805,6.029,13.2957,4.59956,2469.806,2019-10-07T07:41:53Z
2019-10-07T05:44:31Z,42.805,6.029,13.2958,4.59957,2469.806,2019-10-07T07:44:56Z
2019-10-07T05:47:34Z,42.805,6.029,13.2964,4.59964,2469.821,2019-10-07T07:47:59Z
2019-10-07T05:50:37Z,42.805,6.029,13.2970,4.59975,2469.83,2019-10-07T07:51:02Z
2019-10-07T05:53:41Z,42.805,6.029,13.2971,4.59975,2469.844,2019-10-07T07:54:06Z
2019-10-07T05:56:44Z,42.805,6.029,13.2957,4.59957,2469.806,2019-10-07T07:57:09Z
2019-10-07T05:59:47Z,42.805,6.029,13.2967,4.59967,2469.83,2019-10-07T08:00:12Z
2019-10-07T06:02:50Z,42.805,6.029,13.2968,4.59961,2469.793,2019-10-07T08:03:15Z
2019-10-07T06:05:53Z,42.805,6.029,13.2961,4.59970,2469.83,2019-10-07T08:06:18Z
2019-10-07T06:08:57Z,42.805,6.029,13.2968,4.59973,2469.821,2019-10-07T08:09:21Z
2019-10-07T06:12:00Z,42.805,6.029,13.2972,4.59979,2469.876,2019-10-07T08:12:25Z
2019-10-07T06:15:03Z,42.805,6.029,13.2968,4.59963,2469.853,2019-10-07T08:15:28Z
2019-10-07T06:18:06Z,42.805,6.029,13.2976,4.59978,2469.853,2019-10-07T08:18:31Z
2019-10-07T06:21:10Z,42.805,6.029,13.2964,4.59964,2469.844,2019-10-07T08:21:34Z
2019-10-07T06:24:13Z,42.805,6.029,13.2959,4.59956,2469.867,2019-10-07T08:24:38Z
2019-10-07T06:27:16Z,42.805,6.029,13.2971,4.59968,2469.844,2019-10-07T08:27:41Z
2019-10-07T06:30:19Z,42.805,6.029,13.2965,4.59961,2469.821,2019-10-07T08:30:44Z
2019-10-07T06:33:22Z,42.805,6.029,13.2963,4.59958,2469.83,2019-10-07T08:33:47Z
2019-10-07T06:36:26Z,42.805,6.029,13.2967,4.59963,2469.83,2019-10-07T08:36:50Z
2019-10-07T06:39:29Z,42.805,6.029,13.2962,4.59956,2469.821,2019-10-07T08:39:54Z
2019-10-07T06:42:32Z,42.805,6.029,13.2968,4.59963,2469.806,2019-10-07T08:42:57Z
2019-10-07T06:45:35Z,42.805,6.029,13.2972,4.59963,2469.83,2019-10-07T08:46:00Z
2019-10-07T06:48:38Z,42.805,6.029,13.2976,4.59973,2469.821,2019-10-07T08:49:03Z
2019-10-07T06:51:42Z,42.805,6.029,13.2971,4.59963,2469.821,2019-10-07T08:52:06Z
2019-10-07T06:54:45Z,42.805,6.029,13.2961,4.59962,2469.83,2019-10-07T08:55:10Z
2019-10-07T06:57:48Z,42.805,6.029,13.2963,4.59961,2469.821,2019-10-07T08:58:13Z
2019-10-07T07:00:51Z,42.805,6.029,13.2965,4.59957,2469.806,2019-10-07T09:01:16Z
2019-10-07T07:03:54Z,42.805,6.029,13.2972,4.59973,2469.806,2019-10-07T09:04:19Z
2019-10-07T07:06:58Z,42.805,6.029,13.2956,4.59958,2469.821,2019-10-07T09:07:22Z
2019-10-07T07:10:01Z,42.805,6.029,13.2964,4.59964,2469.867,2019-10-07T09:10:26Z
2019-10-07T07:13:04Z,42.805,6.029,13.2974,4.59974,2469.83,2019-10-07T09:13:29Z
2019-10-07T07:16:07Z,42.805,6.029,13.2966,4.59975,2469.867,2019-10-07T09:16:32Z
2019-10-07T07:19:11Z,42.805,6.029,13.2979,4.59973,2469.83,2019-10-07T09:19:35Z
2019-10-07T07:22:14Z,42.805,6.029,13.2971,4.59965,2469.806,2019-10-07T09:22:38Z
2019-10-07T07:25:17Z,42.805,6.029,13.2959,4.59960,2469.821,2019-10-07T09:25:42Z
2019-10-07T07:28:20Z,42.805,6.029,13.2973,4.59974,2469.844,2019-10-07T09:28:45Z
2019-10-07T07:31:23Z,42.805,6.029,13.2967,4.59966,2469.806,2019-10-07T09:31:48Z
2019-10-07T07:34:27Z,42.805,6.029,13.2958,4.59955,2469.83,2019-10-07T09:34:51Z
2019-10-07T07:37:30Z,42.805,6.029,13.2957,4.59956,2469.793,2019-10-07T09:37:55Z
2019-10-07T07:40:33Z,42.805,6.029,13.2977,4.59968,2469.844,2019-10-07T09:40:58Z
2019-10-07T07:43:36Z,42.805,6.029,13.2967,4.59960,2469.844,2019-10-07T09:44:01Z
2019-10-07T07:46:39Z,42.805,6.029,13.2978,4.59978,2469.83,2019-10-07T09:47:04Z
2019-10-07T07:49:43Z,42.805,6.029,13.2974,4.59968,2469.853,2019-10-07T09:50:07Z
2019-10-07T07:52:46Z,42.805,6.029,13.2962,4.59966,2469.806,2019-10-07T09:53:11Z
2019-10-07T07:55:49Z,42.805,6.029,13.2961,4.59966,2469.793,2019-10-07T09:56:14Z
2019-10-07T07:58:52Z,42.805,6.029,13.2971,4.59972,2469.806,2019-10-07T09:59:17Z
2019-10-07T08:01:56Z,42.805,6.029,13.2967,4.59963,2469.83,2019-10-07T10:02:20Z
2019-10-07T08:04:59Z,42.805,6.029,13.2958,4.59960,2469.844,2019-10-07T10:05:23Z
2019-10-07T08:08:02Z,42.805,6.029,13.2960,4.59956,2469.821,2019-10-07T10:08:27Z
2019-10-07T08:11:05Z,42.805,6.029,13.2959,4.59963,2469.821,2019-10-07T10:11:30Z
2019-10-07T08:14:08Z,42.805,6.029,13.2964,4.59958,2469.844,2019-10-07T10:14:33Z
2019-10-07T08:17:12Z,42.805,6.029,13.2961,4.59956,2469.83,2019-10-07T10:17:36Z
2019-10-07T08:20:15Z,42.805,6.029,13.2961,4.59956,2469.853,2019-10-07T10:20:40Z
2019-10-07T08:23:18Z,42.805,6.029,13.2955,4.59957,2469.806,2019-10-07T10:23:43Z
2019-10-07T08:26:21Z,42.805,6.029,13.2960,4.59956,2469.853,2019-10-07T10:26:46Z
2019-10-07T08:29:25Z,42.805,6.029,13.2959,4.59959,2469.83,2019-10-07T10:29:49Z
2019-10-07T08:32:28Z,42.805,6.029,13.2958,4.59956,2469.821,2019-10-07T10:32:53Z
2019-10-07T08:35:31Z,42.805,6.029,13.2962,4.59958,2469.83,2019-10-07T10:35:56Z
2019-10-07T08:38:34Z,42.805,6.029,13.2965,4.59959,2469.821,2019-10-07T10:38:59Z
2019-10-07T08:41:37Z,42.805,6.029,13.2960,4.59964,2469.816,2019-10-07T10:42:02Z
2019-10-07T08:44:41Z,42.805,6.029,13.2964,4.59958,2469.844,2019-10-07T10:45:05Z
2019-10-07T08:47:44Z,42.805,6.029,13.2964,4.59958,2469.844,2019-10-07T10:48:09Z
2019-10-07T08:50:47Z,42.805,6.029,13.2969,4.59969,2469.853,2019-10-07T10:51:12Z
2019-10-07T08:53:50Z,42.805,6.029,13.2959,4.59956,2469.783,2019-10-07T10:54:15Z
2019-10-07T08:56:53Z,42.805,6.029,13.2964,4.59956,2469.83,2019-10-07T10:57:18Z
2019-10-07T08:59:57Z,42.805,6.029,13.2968,4.59961,2469.83,2019-10-07T11:00:21Z
2019-10-07T09:03:00Z,42.805,6.029,13.2957,4.59957,2469.83,2019-10-07T11:03:25Z
2019-10-07T09:06:03Z,42.805,6.029,13.2964,4.59960,2469.83,2019-10-07T11:06:28Z
2019-10-07T09:09:06Z,42.805,6.029,13.2963,4.59957,2469.83,2019-10-07T11:09:31Z
2019-10-07T09:12:10Z,42.805,6.029,13.2958,4.59958,2469.844,2019-10-07T11:12:34Z
2019-10-07T09:15:13Z,42.805,6.029,13.2961,4.59956,2469.876,2019-10-07T11:15:37Z
2019-10-07T09:18:16Z,42.805,6.029,13.2961,4.59957,2469.867,2019-10-07T11:18:41Z
2019-10-07T09:21:19Z,42.805,6.029,13.2964,4.59956,2469.83,2019-10-07T11:21:44Z
2019-10-07T09:24:22Z,42.805,6.029,13.2961,4.59961,2469.844,2019-10-07T11:24:47Z
2019-10-07T09:27:26Z,42.805,6.029,13.2961,4.59957,2469.844,2019-10-07T11:27:50Z
2019-10-07T09:30:29Z,42.805,6.029,13.2958,4.59957,2469.806,2019-10-07T11:30:54Z
2019-10-07T09:33:32Z,42.805,6.029,13.2961,4.59955,2469.844,2019-10-07T11:33:57Z
2019-10-07T09:36:35Z,42.805,6.029,13.2958,4.59956,2469.83,2019-10-07T11:37:00Z
2019-10-07T09:39:39Z,42.805,6.029,13.2970,4.59965,2469.83,2019-10-07T11:40:03Z
2019-10-07T09:42:42Z,42.805,6.029,13.2957,4.59958,2469.83,2019-10-07T11:43:06Z
2019-10-07T09:45:45Z,42.805,6.029,13.2958,4.59956,2469.806,2019-10-07T11:46:10Z
2019-10-07T09:48:48Z,42.805,6.029,13.2961,4.59956,2469.853,2019-10-07T11:49:13Z
2019-10-07T09:51:51Z,42.805,6.029,13.2955,4.59956,2469.844,2019-10-07T11:52:16Z
2019-10-07T09:54:55Z,42.805,6.029,13.2959,4.59955,2469.853,2019-10-07T11:55:19Z
2019-10-07T09:57:58Z,42.805,6.029,13.2961,4.59956,2469.853,2019-10-07T11:58:23Z
2019-10-07T10:01:01Z,42.805,6.029,13.2958,4.59956,2469.83,2019-10-07T12:01:26Z
2019-10-07T10:04:04Z,42.805,6.029,13.2958,4.59958,2469.853,2019-10-07T12:04:29Z
2019-10-07T10:07:08Z,42.805,6.029,13.2956,4.59956,2469.83,2019-10-07T12:07:32Z
2019-10-07T10:10:11Z,42.805,6.029,13.2958,4.59956,2469.876,2019-10-07T12:10:36Z
2019-10-07T10:13:14Z,42.805,6.029,13.2961,4.59956,2469.853,2019-10-07T12:13:39Z
2019-10-07T10:16:17Z,42.805,6.029,13.2957,4.59956,2469.853,2019-10-07T12:16:42Z
2019-10-07T10:19:21Z,42.805,6.029,13.2962,4.59956,2469.853,2019-10-07T12:19:45Z
2019-10-07T10:22:24Z,42.805,6.029,13.2957,4.59957,2469.853,2019-10-07T12:22:49Z
2019-10-07T10:25:27Z,42.805,6.029,13.2960,4.59955,2469.853,2019-10-07T12:25:52Z
2019-10-07T10:28:30Z,42.805,6.029,13.2958,4.59956,2469.876,2019-10-07T12:28:55Z
2019-10-07T10:31:33Z,42.805,6.029,13.2960,4.59956,2469.853,2019-10-07T12:31:58Z
2019-10-07T10:34:37Z,42.805,6.029,13.2964,4.59958,2469.876,2019-10-07T12:35:01Z
2019-10-07T10:37:40Z,42.805,6.029,13.2969,4.59957,2469.867,2019-10-07T12:38:05Z
2019-10-07T10:40:43Z,42.805,6.029,13.2959,4.59956,2469.876,2019-10-07T12:41:08Z
2019-10-07T10:43:46Z,42.805,6.029,13.2958,4.59958,2469.853,2019-10-07T12:44:11Z
2019-10-07T10:46:49Z,42.805,6.029,13.2958,4.59956,2469.853,2019-10-07T12:47:14Z
2019-10-07T10:49:53Z,42.805,6.029,13.2961,4.59956,2469.83,2019-10-07T12:50:17Z
2019-10-07T10:52:56Z,42.805,6.029,13.2958,4.59958,2469.867,2019-10-07T12:53:21Z
2019-10-07T10:55:59Z,42.805,6.029,13.2960,4.59956,2469.89,2019-10-07T12:56:24Z
2019-10-07T10:59:02Z,42.805,6.029,13.2958,4.59956,2469.89,2019-10-07T12:59:27Z
2019-10-07T11:02:05Z,42.805,6.029,13.2957,4.59956,2469.853,2019-10-07T13:02:30Z
2019-10-07T11:05:09Z,42.805,6.029,13.2958,4.59956,2469.876,2019-10-07T13:05:33Z
2019-10-07T11:08:12Z,42.805,6.029,13.2958,4.59955,2469.876,2019-10-07T13:08:37Z
2019-10-07T11:11:15Z,42.805,6.029,13.2957,4.59956,2469.853,2019-10-07T13:11:40Z
2019-10-07T11:14:18Z,42.805,6.029,13.2959,4.59956,2469.876,2019-10-07T13:14:43Z
2019-10-07T11:17:22Z,42.805,6.029,13.2961,4.59956,2469.876,2019-10-07T13:17:46Z
2019-10-07T11:20:25Z,42.805,6.029,13.2963,4.59956,2469.844,2019-10-07T13:20:49Z
2019-10-07T11:23:28Z,42.805,6.029,13.2958,4.59956,2469.914,2019-10-07T13:23:53Z
2019-10-07T11:26:31Z,42.805,6.029,13.2961,4.59955,2469.853,2019-10-07T13:26:56Z
2019-10-07T11:29:35Z,42.805,6.029,13.2959,4.59957,2469.9,2019-10-07T13:29:59Z
2019-10-07T11:32:38Z,42.805,6.029,13.2961,4.59956,2469.914,2019-10-07T13:33:03Z
2019-10-07T11:35:41Z,42.805,6.029,13.2963,4.59958,2469.89,2019-10-07T13:36:06Z
2019-10-07T11:38:44Z,42.805,6.029,13.2961,4.59956,2469.937,2019-10-07T13:39:09Z
2019-10-07T11:41:47Z,42.805,6.029,13.2957,4.59957,2469.876,2019-10-07T13:42:12Z
2019-10-07T11:44:51Z,42.805,6.029,13.2959,4.59956,2469.876,2019-10-07T13:45:15Z
2019-10-07T11:47:54Z,42.805,6.029,13.2961,4.59955,2469.876,2019-10-07T13:48:19Z
2019-10-07T11:50:57Z,42.805,6.029,13.2957,4.59956,2469.867,2019-10-07T13:51:22Z
2019-10-07T11:54:00Z,42.805,6.029,13.2958,4.59956,2469.914,2019-10-07T13:54:25Z
2019-10-07T11:57:04Z,42.805,6.029,13.2966,4.59966,2469.886,2019-10-07T13:57:28Z
2019-10-07T12:00:07Z,42.805,6.029,13.2963,4.59958,2469.89,2019-10-07T14:00:32Z
2019-10-07T12:03:10Z,42.805,6.029,13.2961,4.59965,2469.9,2019-10-07T14:03:35Z
2019-10-07T12:06:13Z,42.805,6.029,13.2957,4.59956,2469.876,2019-10-07T14:06:38Z
2019-10-07T12:09:16Z,42.805,6.029,13.2968,4.59957,2469.876,2019-10-07T14:09:41Z
2019-10-07T12:12:20Z,42.805,6.029,13.2961,4.59956,2469.89,2019-10-07T14:12:44Z
2019-10-07T12:15:23Z,42.805,6.029,13.2961,4.59956,2469.914,2019-10-07T14:15:48Z
2019-10-07T12:18:26Z,42.805,6.029,13.2958,4.59960,2469.89,2019-10-07T14:18:51Z
2019-10-07T12:21:29Z,42.805,6.029,13.2961,4.59958,2469.923,2019-10-07T14:21:54Z
2019-10-07T12:24:32Z,42.805,6.029,13.2960,4.59958,2469.89,2019-10-07T14:24:57Z
2019-10-07T12:27:36Z,42.805,6.029,13.2962,4.59958,2469.96,2019-10-07T14:28:00Z
2019-10-07T12:30:39Z,42.805,6.029,13.2958,4.59959,2469.937,2019-10-07T14:31:04Z
2019-10-07T12:33:42Z,42.805,6.029,13.2957,4.59956,2469.9,2019-10-07T14:34:07Z
2019-10-07T12:36:45Z,42.805,6.029,13.2961,4.59956,2469.914,2019-10-07T14:37:10Z
2019-10-07T12:39:48Z,42.805,6.029,13.2961,4.59957,2469.9,2019-10-07T14:40:13Z
2019-10-07T12:42:52Z,42.805,6.029,13.2958,4.59958,2469.9,2019-10-07T14:43:17Z
2019-10-07T12:45:55Z,42.805,6.029,13.2960,4.59956,2469.923,2019-10-07T14:46:20Z
2019-10-07T12:48:58Z,42.805,6.029,13.2960,4.59956,2469.947,2019-10-07T14:49:23Z
2019-10-07T12:52:02Z,42.805,6.029,13.2960,4.59956,2469.914,2019-10-07T14:52:26Z
2019-10-07T12:55:05Z,42.805,6.029,13.2959,4.59955,2469.947,2019-10-07T14:55:30Z
2019-10-07T12:58:08Z,42.805,6.029,13.2957,4.59957,2469.923,2019-10-07T14:58:33Z
2019-10-07T13:01:11Z,42.805,6.029,13.2957,4.59955,2469.937,2019-10-07T15:01:36Z
2019-10-07T13:04:14Z,42.805,6.029,13.2957,4.59956,2469.923,2019-10-07T15:04:39Z
2019-10-07T13:07:18Z,42.805,6.029,13.2967,4.59958,2469.937,2019-10-07T15:07:42Z
2019-10-07T13:10:21Z,42.805,6.029,13.2962,4.59958,2469.923,2019-10-07T15:10:46Z
2019-10-07T13:13:24Z,42.805,6.029,13.2959,4.59956,2469.923,2019-10-07T15:13:49Z
2019-10-07T13:16:27Z,42.805,6.029,13.2963,4.59956,2469.96,2019-10-07T15:16:52Z
2019-10-07T13:19:31Z,42.805,6.029,13.2957,4.59956,2469.923,2019-10-07T15:19:55Z
2019-10-07T13:22:34Z,42.805,6.029,13.2958,4.59957,2469.923,2019-10-07T15:22:59Z
2019-10-07T13:25:37Z,42.805,6.029,13.2961,4.59956,2469.947,2019-10-07T15:26:02Z
2019-10-07T13:28:41Z,42.805,6.029,13.2962,4.59957,2469.947,2019-10-07T15:29:05Z
2019-10-07T13:31:44Z,42.805,6.029,13.2962,4.59971,2469.97,2019-10-07T15:32:09Z
2019-10-07T13:34:47Z,42.805,6.029,13.2968,4.59966,2469.937,2019-10-07T15:35:12Z
2019-10-07T13:37:50Z,42.805,6.029,13.2958,4.59956,2469.937,2019-10-07T15:38:15Z
2019-10-07T13:40:53Z,42.805,6.029,13.2958,4.59956,2469.97,2019-10-07T15:41:18Z
2019-10-07T13:43:57Z,42.805,6.029,13.2960,4.59956,2469.947,2019-10-07T15:44:21Z
2019-10-07T13:47:00Z,42.805,6.029,13.2971,4.59959,2470.007,2019-10-07T15:47:25Z
2019-10-07T13:50:03Z,42.805,6.029,13.2971,4.59974,2469.96,2019-10-07T15:50:28Z
2019-10-07T13:53:06Z,42.805,6.029,13.2961,4.59959,2469.947,2019-10-07T15:53:31Z
2019-10-07T13:56:09Z,42.805,6.029,13.2960,4.59960,2469.96,2019-10-07T15:56:34Z
2019-10-07T13:59:13Z,42.805,6.029,13.2961,4.59961,2469.947,2019-10-07T15:59:37Z
2019-10-07T14:02:16Z,42.805,6.029,13.2963,4.59957,2469.947,2019-10-07T16:02:41Z
2019-10-07T14:05:19Z,42.805,6.029,13.2957,4.59957,2469.9,2019-10-07T16:05:44Z
2019-10-07T14:08:22Z,42.805,6.029,13.2957,4.59956,2469.947,2019-10-07T16:08:47Z
2019-10-07T14:11:25Z,42.805,6.029,13.2961,4.59957,2469.97,2019-10-07T16:11:50Z
2019-10-07T14:14:29Z,42.805,6.029,13.2976,4.59958,2469.984,2019-10-07T16:14:53Z
2019-10-07T14:17:32Z,42.805,6.029,13.2967,4.59973,2469.947,2019-10-07T16:17:57Z
2019-10-07T14:20:35Z,42.805,6.029,13.2965,4.59964,2469.97,2019-10-07T16:21:00Z
2019-10-07T14:23:38Z,42.805,6.029,13.2959,4.59957,2469.984,2019-10-07T16:24:03Z
2019-10-07T14:26:42Z,42.805,6.029,13.2957,4.59956,2469.96,2019-10-07T16:27:06Z
2019-10-07T14:29:45Z,42.805,6.029,13.2961,4.59956,2470.03,2019-10-07T16:30:10Z
2019-10-07T14:32:48Z,42.805,6.029,13.2957,4.59956,2469.947,2019-10-07T16:33:13Z
2019-10-07T14:35:51Z,42.805,6.029,13.2959,4.59957,2469.97,2019-10-07T16:36:16Z
2019-10-07T14:38:55Z,42.805,6.029,13.2958,4.59957,2469.96,2019-10-07T16:39:19Z
2019-10-07T14:41:58Z,42.805,6.029,13.2958,4.59956,2469.984,2019-10-07T16:42:23Z
2019-10-07T14:45:01Z,42.805,6.029,13.2956,4.59956,2469.96,2019-10-07T16:45:26Z
2019-10-07T14:48:04Z,42.805,6.029,13.2959,4.59958,2469.97,2019-10-07T16:48:29Z
2019-10-07T14:51:07Z,42.805,6.029,13.2965,4.59956,2469.933,2019-10-07T16:51:32Z
2019-10-07T14:54:11Z,42.805,6.029,13.2958,4.59956,2469.984,2019-10-07T16:54:35Z
2019-10-07T14:57:14Z,42.805,6.029,13.2965,4.59960,2469.97,2019-10-07T16:57:39Z
2019-10-07T15:00:17Z,42.805,6.029,13.2961,4.59957,2469.993,2019-10-07T17:00:42Z
2019-10-07T15:03:20Z,42.805,6.029,13.2959,4.59957,2469.97,2019-10-07T17:03:45Z